EW3719 Weather Reports


Display with metric or nautical units.
time (UTC)temp
F
wind
direction
speed
MPH
gust
MPH
rain 1hr
in
rain 24hr
in
rain mn
in
humidity
%
barometer
mb
20260507150040 47 259 9.0 17.0 0.00 0.03 0.00 58 1011.4
20260507144537 46 266 7.0 17.0 0.00 0.03 0.00 59 1011.5
20260507143039 45 252 12.0 17.0 0.00 0.03 0.00 57 1011.6
20260507141537 46 233 10.0 21.0 0.00 0.03 0.00 57 1011.6
20260507140035 45 264 8.0 14.0 0.00 0.08 0.00 58 1011.7
20260507134545 45 271 8.0 16.0 0.00 0.08 0.00 57 1011.9
20260507133031 44 275 5.0 16.0 0.00 0.08 0.00 60 1011.8
20260507131535 44 282 9.0 15.0 0.00 0.08 0.00 58 1011.8
20260507130029 44 280 8.0 18.0 0.00 0.13 0.00 60 1011.9
20260507124526 43 292 8.0 18.0 0.00 0.13 0.00 62 1011.9
20260507123025 43 290 10.0 19.0 0.00 0.13 0.00 61 1012.0
20260507121524 42 252 7.0 15.0 0.00 0.13 0.00 65 1011.9
20260507120023 42 276 8.0 16.0 0.00 0.17 0.00 67 1011.9
20260507114527 41 320 5.0 13.0 0.00 0.17 0.00 70 1011.8
20260507113020 41 303 6.0 13.0 0.00 0.17 0.00 71 1011.7
20260507111523 41 264 7.0 16.0 0.00 0.17 0.00 70 1011.7
20260507110019 41 285 5.0 12.0 0.00 0.25 0.00 72 1011.6
20260507104516 40 243 5.0 12.0 0.00 0.25 0.00 73 1011.4
20260507103016 39 293 5.0 13.0 0.00 0.25 0.00 73 1011.2
20260507101519 39 270 4.0 10.0 0.00 0.25 0.00 74 1011.1
20260507100013 38 246 4.0 9.0 0.00 0.33 0.00 75 1011.1
20260507094512 38 248 5.0 10.0 0.00 0.33 0.00 74 1011.0
20260507093011 38 295 5.0 11.0 0.00 0.33 0.00 74 1011.1
20260507091511 39 242 5.0 10.0 0.00 0.33 0.00 74 1011.0
20260507090008 39 262 5.0 12.0 0.00 0.38 0.00 73 1011.0
20260507084505 39 263 6.0 14.0 0.00 0.38 0.00 72 1011.0
20260507083006 39 250 6.0 14.0 0.00 0.38 0.00 72 1010.9
20260507081511 39 271 5.0 12.0 0.00 0.38 0.00 72 1010.7
20260507080003 39 279 6.0 15.0 0.00 0.40 0.00 73 1010.9
20260507074601 40 230 8.0 21.0 0.00 0.40 0.00 72 1011.0
20260507073101 40 285 9.0 21.0 0.00 0.40 0.00 73 1010.9
20260507071600 40 275 9.0 15.0 0.00 0.40 0.00 75 1010.5
20260507070104 40 255 7.0 12.0 0.00 0.40 0.00 75 1010.5
20260507064553 41 255 6.0 15.0 0.00 0.52 0.00 74 1010.6
20260507063053 41 254 8.0 12.0 0.00 0.52 0.00 72 1010.5
20260507061552 41 269 7.0 16.0 0.00 0.52 0.00 73 1010.7
20260507054547 42 274 7.0 14.0 0.00 0.62 0.00 71 1010.5
20260507053049 43 265 8.0 15.0 0.00 0.62 0.00 72 1010.6
20260507051542 43 295 5.0 17.0 0.00 0.62 0.00 69 1010.6
20260507050042 43 284 9.0 22.0 0.00 0.65 0.00 70 1010.6
20260507044534 44 214 6.0 12.0 0.00 0.65 0.00 88 1010.6
20260507043032 44 245 6.0 12.0 0.00 0.65 0.00 89 1010.5
20260507041531 44 250 7.0 11.0 0.00 0.65 0.00 89 1010.3
20260507040026 44 238 6.0 12.0 0.00 0.69 0.65 90 1010.4
20260507034544 44 237 5.0 11.0 0.00 0.69 0.65 90 1010.3
20260507033024 44 236 7.0 12.0 0.00 0.69 0.65 89 1010.3
20260507031524 44 225 4.0 10.0 0.00 0.69 0.65 89 1010.4
20260507030024 43 271 4.0 8.0 0.00 0.75 0.65 89 1010.4
20260507024538 43 217 5.0 11.0 0.00 0.75 0.65 89 1010.5
20260507023021 43 238 8.0 14.0 0.00 0.75 0.65 89 1010.5
20260507021521 44 236 6.0 13.0 0.00 0.75 0.65 89 1010.7
20260507020021 44 231 6.0 13.0 0.00 0.83 0.65 89 1010.8
20260507014533 44 240 5.0 12.0 0.00 0.83 0.65 89 1010.7
20260507013018 44 246 5.0 10.0 0.00 0.83 0.65 89 1010.9
20260507011534 44 202 5.0 12.0 0.00 0.83 0.65 88 1010.9
20260507010019 44 236 5.0 10.0 0.00 0.93 0.65 89 1010.8
20260507004516 44 256 4.0 9.0 0.00 0.93 0.65 88 1010.8
20260507003017 44 238 3.0 6.0 0.00 0.93 0.65 88 1010.6
20260507001516 45 221 3.0 6.0 0.00 0.93 0.65 87 1010.4
20260507000011 45 260 2.0 5.0 0.00 1.00 0.65 86 1009.9
20260506234510 46 251 4.0 8.0 0.00 1.00 0.65 86 1010.0
20260506233110 46 240 2.0 5.0 0.00 1.00 0.65 84 1009.9
20260506231508 46 255 2.0 4.0 0.00 1.00 0.65 81 1009.9
20260506230013 46 229 0.0 3.0 0.00 1.00 0.65 81 1009.8
20260506224509 46 240 2.0 4.0 0.00 1.00 0.65 77 1009.9
20260506223007 46 248 2.0 4.0 0.00 1.00 0.65 79 1009.8
20260506221506 46 258 1.0 4.0 0.00 1.00 0.65 80 1009.7
20260506220006 46 299 2.0 4.0 0.00 1.00 0.65 81 1009.6
20260506214505 46 250 2.0 4.0 0.00 1.00 0.65 82 1009.6
20260506213004 47 261 2.0 4.0 0.00 1.00 0.65 80 1009.6
20260506211504 47 248 1.0 3.0 0.00 1.00 0.65 75 1009.6
20260506210002 46 324 0.0 3.0 0.00 1.00 0.65 78 1009.4
20260506204502 46 287 1.0 3.0 0.00 1.00 0.65 80 1009.6
20260506203059 47 322 1.0 4.0 0.00 1.00 0.65 82 1009.6
20260506201600 46 273 0.0 4.0 0.00 1.00 0.65 84 1009.3
20260506200058 46 356 2.0 5.0 0.00 1.00 0.65 83 1009.3
20260506194556 46 58 2.0 5.0 0.00 1.00 0.65 83 1009.2
20260506193054 46 48 2.0 4.0 0.00 1.00 0.65 86 1009.4
20260506191552 45 338 1.0 3.0 0.00 1.00 0.65 87 1009.7
20260506190051 45 11 2.0 3.0 0.00 1.00 0.65 88 1009.7
20260506184548 44 37 2.0 7.0 0.00 1.00 0.65 88 1009.5
20260506183048 44 34 3.0 6.0 0.00 1.00 0.65 89 1009.7
20260506181547 45 50 2.0 7.0 0.00 1.00 0.65 90 1009.4
20260506180046 44 22 4.0 7.0 0.00 1.00 0.65 89 1009.3
20260506174555 44 42 3.0 7.0 0.00 1.00 0.65 90 1009.2
20260506173052 43 60 4.0 9.0 0.00 1.00 0.65 90 1009.1
20260506171544 44 53 5.0 8.0 0.00 1.00 0.65 89 1009.0
20260506170046 44 82 5.0 11.0 0.01 1.00 0.65 89 1009.0
20260506164541 44 44 5.0 9.0 0.01 1.00 0.65 90 1009.1
20260506163047 44 52 7.0 11.0 0.02 1.00 0.65 90 1009.3
20260506161539 44 49 7.0 10.0 0.02 1.00 0.65 91 1009.5
20260506160037 43 13 5.0 10.0 0.01 0.99 0.64 92 1009.7
20260506154539 43 34 4.0 8.0 0.01 0.99 0.64 92 1009.8
20260506153042 43 42 5.0 9.0 0.00 0.98 0.63 92 1009.8
20260506151536 43 32 4.0 8.0 0.00 0.98 0.63 93 1009.5